Home > Weather > Indonesia > Sofifi > Past weeks

Flag for Indonesia Weather past 2 weeks in Sofifi, North Maluku, Indonesia

82 °F

Scattered clouds.

Feels Like: 91 °F
Forecast: 77 / 87 °F
Wind: 1 mph from North

Location: Menado / Dr. Sam Ratulangi

Current Time: Dec 2, 2015 at 9:38:20 AM

Latest Report: Dec 2, 2015 at 9:00 AM

Visibility: 6 mi

Pressure: 29.89 "Hg

Humidity: 84%

Dew point: 77 °F

Location of SofifiLocation

Historic Weather in Sofifi — Graph


Sofifi temperature yesterday

Maximum temperature yesterday: 90 °F (at 12:30 PM)
Minimum temperature yesterday: 75 °F (at 6:30 AM)
Average temperature yesterday: 81 °F

Past Weeks' High & Low Weather Summary

High95 °F (Nov 24, 11:30 AM)100% (Nov 18, 2:30 AM)29.92 "Hg (Nov 18, 2:30 AM)
Low73 °F (Nov 18, 2:30 AM)53% (Nov 17, 12:00 PM)29.71 "Hg (Nov 21, 4:00 PM)
Average80 °F85%29.81 "Hg
* Reported Nov 17 8:00 AM — Dec 2 8:00 AM, Sofifi, Weather by CustomWeather, © 2015

Note: Actual official high and low records may vary slightly from our data, if they occured in-between our weather recording intervals... More about our weather records


Sofifi weather history for previous 24 hours

Time TempWeatherWind HumidityBarometerVisibility
8:00 AM
Wed, Dec 2
81 °FScattered clouds.1 mph89%29.86 "Hg6 mi
7:30 AM79 °FLight rain. Scattered clouds.2 mph94%29.86 "Hg4 mi
7:00 AM77 °FScattered clouds.1 mph100%29.86 "Hg6 mi
6:30 AM77 °FLight rain. Scattered clouds.2 mph94%29.86 "Hg5 mi
6:00 AM77 °FPassing clouds.2 mph94%29.86 "Hg6 mi
5:30 AM77 °FPassing clouds.3 mph94%29.83 "Hg5 mi
4:00 AM77 °FWarm.N/A94%29.80 "HgN/A
3:00 AM77 °FPassing clouds.2 mph94%29.80 "Hg5 mi
2:30 AM77 °FPassing clouds.5 mph94%29.80 "Hg5 mi
2:00 AM77 °FPassing clouds.2 mph94%29.80 "Hg5 mi
1:30 AM77 °FPassing clouds.1 mph94%29.83 "Hg5 mi
1:00 AM77 °FPassing clouds.2 mph100%29.83 "Hg5 mi
12:30 AM79 °FLight rain. Passing clouds.3 mph94%29.86 "Hg4 mi
12:00 AM79 °FLight rain. Passing clouds.2 mph94%29.86 "Hg2 mi
11:30 PM
Tue, Dec 1
79 °FLight rain. Passing clouds.2 mph94%29.86 "Hg3 mi
11:00 PM79 °FLight rain. Passing clouds.2 mph94%29.86 "Hg4 mi
10:30 PM79 °FPassing clouds.3 mph94%29.86 "Hg4 mi
10:00 PM79 °FLight rain. Passing clouds.2 mph94%29.86 "Hg4 mi
9:30 PM79 °FPassing clouds.3 mph94%29.86 "Hg5 mi
9:00 PM79 °FPassing clouds.3 mph94%29.86 "Hg5 mi
8:30 PM79 °FLight rain. Passing clouds.2 mph94%29.86 "Hg5 mi
8:00 PM81 °FPassing clouds.No wind89%29.83 "Hg5 mi
7:30 PM81 °FLight rain. Passing clouds.2 mph89%29.83 "Hg4 mi
7:00 PM81 °FPassing clouds.1 mph89%29.83 "Hg6 mi
6:30 PM82 °FPassing clouds.5 mph84%29.80 "Hg6 mi
6:00 PM82 °FScattered clouds.5 mph79%29.80 "Hg6 mi
5:00 PM86 °FScattered clouds.6 mph70%29.77 "Hg6 mi
4:30 PM88 °FScattered clouds.6 mph66%29.77 "Hg6 mi
4:00 PM88 °FScattered clouds.6 mph66%29.77 "HgN/A
3:30 PM88 °FScattered clouds.6 mph62%29.77 "HgN/A
3:00 PM88 °FScattered clouds.7 mph66%29.77 "Hg6 mi
2:30 PM84 °FScattered clouds.N/A74%29.80 "Hg6 mi
2:00 PM84 °FScattered clouds.8 mph74%29.80 "Hg6 mi
1:00 PM88 °FScattered clouds.7 mph62%29.83 "HgN/A
12:30 PM90 °FScattered clouds.6 mph63%29.83 "HgN/A
12:00 PM88 °FScattered clouds.7 mph62%29.83 "HgN/A
11:30 AM88 °FScattered clouds.6 mph66%29.86 "HgN/A
11:00 AM88 °FScattered clouds.5 mph70%29.86 "HgN/A
10:30 AM86 °FScattered clouds.5 mph75%29.86 "Hg6 mi
10:00 AM86 °FScattered clouds.5 mph70%29.86 "Hg6 mi
9:30 AM86 °FScattered clouds.2 mph75%29.86 "HgN/A
9:00 AM84 °FPassing clouds.2 mph79%29.86 "HgN/A
Weather by CustomWeather, © 2015

See weather overviewHow to use our weather pages